Miscellaneous Local Product
Issued by NWS Hastings, NE

Home | Current Version | Previous Version | Graphics & Text | Print | Product List | Glossary Off
Versions: 1 2 3 4 5 6 7 8 9 10 11 12 13 14 15 16 17 18 19 20 21 22 23 24 25 26 27 28 29 30 31 32 33 34 35 36 37 38 39 40 41 42 43 44 45 46 47 48 49 50

000
AXUS43 KGID 011402
MISGRI

GID CWA HOURLY WEATHER ROUNDUP
NATIONAL WEATHER SERVICE HASTINGS NE
900 AM CDT SUN MAY 01 2016

NOTE: "FAIR" INDICATES FEW OR NO CLOUDS BELOW 12,000 FEET WITH NO
SIGNIFICANT WEATHER AND/OR OBSTRUCTIONS TO VISIBILITY.

...SOUTH CENTRAL NEBRASKA...

CITY           SKY/WX    TMP DP  RH WIND       PRES   REMARKS
GRAND ISLAND   LGT RAIN  41  39  93 N17       30.11R
HASTINGS       LGT RAIN  41  38  89 N20G26    30.09R
KEARNEY        CLOUDY    41  37  87 N17       30.12R
ORD            LGT RAIN  42  39  89 N12       30.14R
YORK           LGT RAIN  41  41 100 N20G26    30.07R
AURORA         CLOUDY    42  41  97 N21G28    30.09R
LEXINGTON      LGT RAIN  42  39  89 N22       30.14R
HOLDREGE       CLOUDY    40  37  90 N20G25    30.10R WCI  31
HEBRON         LGT RAIN  44  43  95 N13G22    30.03R

...NEBRASKA PANHANDLE...

CITY           SKY/WX    TMP DP  RH WIND       PRES   REMARKS
CHADRON        CLOUDY    43  32  65 N10       30.31R
ALLIANCE       CLOUDY    35  31  85 N12       30.27R WCI  27
SCOTTSBLUFF    CLOUDY    40  33  76 N12       30.31R WCI  33
SIDNEY         CLOUDY    35  32  88 N13       30.28R WCI  26

...WESTERN AND NORTH CENTRAL NEBRASKA...

CITY           SKY/WX    TMP DP  RH WIND       PRES   REMARKS
VALENTINE      SUNNY     41  33  73 N12       30.24R
AINSWORTH      SUNNY     41  36  84 N17       30.21R
ONEILL         DRIZZLE   42  40  93 N9G16     30.17R
BROKEN BOW     LGT RAIN  41  39  93 N15       30.15R
IMPERIAL       PTSUNNY   40  37  89 N20       30.22R WCI  30
NORTH PLATTE   CLOUDY    40  37  89 N12       30.18R WCI  33
MCCOOK         CLOUDY    40  37  89 N14       30.18R WCI  32

...EASTERN NEBRASKA...

CITY           SKY/WX    TMP DP  RH WIND       PRES   REMARKS
NORFOLK        LGT RAIN  42  39  89 NE14      30.10R FOG
SO SIOUX CITY  LGT RAIN  45  41  86 NE14      30.10R FOG
TEKAMAH        LGT RAIN  44  42  93 N16       30.06R
COLUMBUS       CLOUDY    43  34  70 N16G22    30.09R
ALBION         DRIZZLE   42  40  94 N12G18    30.12R
OMAHA EPPLEY   DRIZZLE   45  44  97 N10       30.03R FOG
MILLARD        DRIZZLE   45  44  95 CALM      30.02R
LINCOLN        LGT RAIN  45  43  93 N14       30.04R FOG
NEBRASKA CITY  CLOUDY    46  46 100 NE9       29.99R
BEATRICE       CLOUDY    46  44  94 NE14G20   30.00R
FALLS CITY     CLOUDY    51  49  92 NE5       29.96R FOG

...NORTHERN KANSAS...

CITY           SKY/WX    TMP DP  RH WIND       PRES   REMARKS
GOODLAND       MIX PCPN  35  34  96 N18       30.21R FOG     WCI  24
HILL CITY      CLOUDY    41  38  89 N18       30.15R
NORTON         CLOUDY    39  34  81 NW13      30.14R WCI  32
PHILLIPSBURG   CLOUDY    43  39  87 N15       30.14R
SMITH CENTER   CLOUDY    41  37  87 N20       30.11R
BELOIT         CLOUDY    45  39  81 N21       30.05R
HAYS           CLOUDY    43  32  65 NW16G25   30.12R
RUSSELL        CLOUDY    43  42  97 NW22G30   30.08R
CONCORDIA      CLOUDY    46  43  89 N16       30.03R
SALINA         CLOUDY    49  46  90 NW17      30.03R
TOPEKA         CLOUDY    51  46  83 W10       30.00R



USA.gov is the U.S. government's official web portal to all federal, state and local government web resources and services.